#timestamp,LO_Frequency,Hit 
1499328015.7,286046988.9,N
1499328035.6,286046988.7,N
1499328055.4,286046989.0,N
1499328075.3,286046988.9,N
1499328095.1,286046990.4,N
1499328096.0,286046990.4,N
1499328115.8,286046990.5,N
1499328135.7,286046992.6,N
1499328155.5,286046993.6,N
1499328175.4,286046992.0,N
1499328195.2,286046990.7,N
1499328215.0,286046988.5,N
1499328215.9,286046988.5,N
1499328235.8,286046991.5,N
1499328255.6,286046988.7,N
1499328275.4,286046991.5,N
1499328295.3,286046988.9,N
1499328315.1,286046988.7,N
1499328335.8,286046991.1,N
1499328355.7,286046988.7,N
1499328375.5,286046989.3,N
1499328395.4,286046989.4,N
1499328415.2,286046991.1,N
1499328435.0,286046990.9,N
1499328435.9,286046990.9,N
1499328455.8,286046988.8,N
1499328475.6,286046991.0,N
1499328495.4,286046990.8,N
1499328515.3,286046990.1,N
1499328535.1,286046992.9,N
1499328555.9,286046992.1,N
1499328575.7,286046991.8,N
1499328595.5,286046991.9,N
1499328615.4,286046992.9,N
1499328635.2,286046991.4,N
1499328655.0,286046991.2,N
1499328655.9,286046991.2,N
1499328675.8,286046991.5,N
1499328695.6,286046989.7,N
1499328715.5,286046989.6,N
1499328735.3,286046987.3,N
1499328755.1,286046989.0,N
1499328775.9,286046991.0,N
1499328795.7,286046992.7,N
1499328815.5,286046990.4,N
1499328835.4,286046988.7,N
1499328855.2,286046989.1,N
1499328875.1,286046987.2,N
1499328876.0,286046987.2,N
1499328895.8,286046988.8,N
1499328915.6,286046989.9,N
1499328935.5,286046989.2,N
1499328955.3,286046988.9,N
1499328975.1,286046988.9,N
1499328995.9,286046988.5,N
1499329015.7,286046990.0,N
1499329035.6,286046989.0,N
1499329055.4,286046988.7,N
1499329075.2,286046988.7,N
1499329095.1,286046988.7,N
1499329096.0,286046988.7,N
1499329115.8,286046987.3,N
1499329135.6,286046987.8,N
1499329155.5,286046987.9,N
1499329175.3,286046989.8,N
1499329195.2,286046990.8,N
1499329215.9,286046989.8,N
1499329235.7,286046989.5,N
1499329255.6,286046985.8,N
1499329275.4,286046987.6,N
1499329295.2,286046987.4,N
1499329315.1,286046987.9,N
1499329316.0,286046987.9,N
1499329335.8,286046989.1,N
1499329355.7,286046989.8,N
1499329375.5,286046987.8,N
1499329395.3,286046989.5,N
1499329415.2,286046989.5,N
1499329435.0,286046991.5,N
1499329435.9,286046991.5,N
1499329455.8,286046990.7,N
1499329475.6,286046990.1,N
1499329495.4,286046994.8,N
1499329515.3,286046995.7,N
1499329535.1,286046993.5,N
1499329555.9,286046990.9,N
1499329575.7,286046992.7,N
1499329595.5,286046990.8,N
1499329615.4,286046990.4,N
1499329635.2,286046991.2,N
1499329655.0,286046988.5,N
1499329655.9,286046988.5,N
1499329675.8,286046989.6,N
1499329695.6,286046987.5,N
1499329715.5,286046989.7,N
1499329735.3,286046988.7,N
1499329755.1,286046989.8,N
1499329775.9,286046987.3,N
1499329795.7,286046988.0,N
1499329815.5,286046985.3,N
1499329835.4,286046987.8,N
1499329855.2,286046987.5,N
1499329875.1,286046987.1,N
1499329876.0,286046987.1,N
1499329895.8,286046989.6,N
1499329915.6,286046985.7,N
1499329935.5,286046985.7,N
1499329955.3,286046988.0,N
1499329975.1,286046987.7,N
1499329995.9,286046987.5,N
1499330015.7,286046987.1,N
1499330035.6,286046989.9,N
1499330055.4,286046989.1,N
1499330075.2,286046988.9,N
1499330095.1,286046990.6,N
1499330096.0,286046990.6,N
1499330115.8,286046989.0,N
1499330135.6,286046989.0,N
1499330155.5,286046991.6,N
1499330175.3,286046987.4,N
1499330195.2,286046989.3,N
1499330215.9,286046989.4,N
1499330235.7,286046987.2,N
1499330255.6,286046987.8,N
1499330275.4,286046989.6,N
1499330295.2,286046988.9,N
1499330315.1,286046989.6,N
1499330316.0,286046989.6,N
1499330335.8,286046987.5,N
1499330355.7,286046985.6,N
1499330375.5,286046987.5,N
1499330395.3,286046988.1,N
1499330415.2,286046985.3,N
1499330435.0,286046987.9,N
1499330435.9,286046987.9,N
1499330455.7,286046985.8,N
1499330475.6,286046987.5,N
1499330495.4,286046987.9,N
1499330515.3,286046988.4,N
1499330535.1,286046986.5,N
1499330536.0,286046986.5,N
1499330555.8,286046983.9,N
1499330575.7,286046986.6,N
1499330595.5,286046984.5,N
1499330615.3,286046988.3,N
1499330635.2,286046987.8,N
1499330655.0,286046983.8,N
1499330655.9,286046983.8,N
1499330675.8,286046982.5,N
1499330695.6,286046984.7,N
1499330715.4,286046983.9,N
1499330735.3,286046984.5,N
1499330755.1,286046982.2,N
1499330775.8,286046986.8,N
1499330795.7,286046984.2,N
1499330815.5,286046985.0,N
1499330835.4,286046984.7,N
1499330855.2,286046986.6,N
1499330875.0,286046982.1,N
1499330875.9,286046982.1,N
1499330895.8,286046984.3,N
1499330915.6,286046984.5,N
1499330935.4,286046984.6,N
1499330955.3,286046984.5,N
1499330975.1,286046984.8,N
1499330995.9,286046982.6,N
1499331015.7,286046982.2,N
1499331035.5,286046980.5,N
1499331055.4,286046981.9,N
1499331075.2,286046980.2,N
1499331095.0,286046979.6,N
1499331095.9,286046979.6,N
1499331115.8,286046982.0,N
1499331135.6,286046977.5,N
1499331155.5,286046975.7,N
1499331175.3,286046980.4,N
1499331195.1,286046978.2,N
1499331215.9,286046980.2,N
1499331235.7,286046979.3,N
1499331255.5,286046979.6,N
1499331275.4,286046981.9,N
1499331295.2,286046981.9,N
1499331315.1,286046979.1,N
1499331316.0,286046979.1,N
1499331335.8,286046981.9,N
1499331355.6,286046981.1,N
1499331375.5,286046981.4,N
1499331395.3,286046981.6,N
1499331415.1,286046979.5,N
1499331435.9,286046981.8,N
1499331455.7,286046980.8,N
1499331475.6,286046980.1,N
1499331495.4,286046977.3,Y
1499331515.2,286046991.4,N
1499331535.1,286046988.8,N
1499331536.0,286046988.8,N
1499331555.8,286046988.7,N
1499331575.7,286046991.1,N
1499331595.5,286046991.1,N
